POLAR

Last updated on Mon Nov 03 2025 00:03:51 GMT+0000 (Coordinated Universal Time)

1 23802U 96013A 25303.51289263 .00000143 00000+0 00000+0 0 9999 2 23802 79.5909 229.6199 6244251 216.8522 77.1863 1.29846409141870
UTC large
Height (km)
Speed (km/s)
/
Latitude / Longitude
Inclination (degrees)
Orbital Period (minutes)
Azimuth
Elevation
Range (km)
Doppler Factor

Next 0 passes for location: London (51.5072 / 0.1276)

Sorry there are no passes over London.